This is the latest recevied weather packets stored in our database for station/object KB2AHZ. If no packets are shown the sender has not sent any weather packets the latest 1 day(s).
| Time | Temp. | Humidity | Pressure | Rain* | Wind** | Luminosity | Snow |
|---|---|---|---|---|---|---|---|
| 1778073863 | 18.89° C | 77% | 1014 hPa | 0 mm | - | 179 W/m² | - |
| 1778073561 | 18.33° C | 78% | 1014 hPa | 0 mm | - | 160 W/m² | - |
| 1778072047 | 18.89° C | 76% | 1013.9 hPa | 0 mm | - | 146 W/m² | - |
| 1778071745 | 18.33° C | 76% | 1013.5 hPa | 0 mm | - | 128 W/m² | - |
| 1778070231 | 18.33° C | 78% | 1013.6 hPa | 0 mm | - | 102 W/m² | - |
| 1778069323 | 18.33° C | 78% | 1013.4 hPa | 0 mm | - | 71 W/m² | - |
| 1778068718 | 18.33° C | 78% | 1013.2 hPa | 0 mm | - | 67 W/m² | - |
| 1778068114 | 17.78° C | 78% | 1013.5 hPa | 0 mm | - | 66 W/m² | - |
| 1778067510 | 17.78° C | 78% | 1013.4 hPa | 0 mm | - | 43 W/m² | - |
| 1778067207 | 17.78° C | 78% | 1013.6 hPa | 0 mm | - | 39 W/m² | - |
| 1778066298 | 17.78° C | 78% | 1013.3 hPa | 0 mm | - | 30 W/m² | - |
| 1778065996 | 17.78° C | 78% | 1013.5 hPa | 0 mm | - | 26 W/m² | - |
| 1778065087 | 17.78° C | 78% | 1013.2 hPa | 0 mm | - | 13 W/m² | - |
| 1778064481 | 17.78° C | 79% | 1013.2 hPa | 0 mm | - | 8 W/m² | - |
| 1778064179 | 17.78° C | 79% | 1013.3 hPa | 0 mm | - | 8 W/m² | - |
| 1778063876 | 17.78° C | 79% | 1013.4 hPa | 0 mm | - | 10 W/m² | - |
| 1778063271 | 17.78° C | 79% | 1013.3 hPa | 0 mm | - | 7 W/m² | - |
| 1778062362 | 17.78° C | 79% | 1013.2 hPa | 0 mm | - | 2 W/m² | - |
| 1778062060 | 17.78° C | 79% | 1013.4 hPa | 0 mm | - | 1 W/m² | - |
| 1778061758 | 17.78° C | 79% | 1013.2 hPa | 0 mm | - | 0 W/m² | - |
| 1778060246 | 17.78° C | 79% | 1013.1 hPa | 0 mm | - | 0 W/m² | - |
| 1778059338 | 17.78° C | 79% | 1013.2 hPa | 0 mm | - | 0 W/m² | - |
| 1778058127 | 17.78° C | 79% | 1013.8 hPa | 0 mm | - | 0 W/m² | - |
| 1778057824 | 17.78° C | 79% | 1013.5 hPa | 0 mm | - | 0 W/m² | - |
| 1778057520 | 17.78° C | 79% | 1013.7 hPa | 0 mm | - | 0 W/m² | - |
* Rain latest hour (hover to see other rain measurements)
** Current wind speed in m/s (hover to see current wind gust speed)